GW0390 Weather Reports


time (UTC)temp
C
wind
direction
speed
KPH
gust
KPH
rain 1hr
cm
rain 24hr
cm
rain mn
cm
humidity
%
barometer
mb
20260506164559 18 162 0.0 6.4 0.00 0.00 0.00 70 1020.6
20260506163116 17 256 0.0 6.4 0.00 0.00 0.00 72 1020.6
20260506161552 17 85 0.0 4.8 0.00 0.00 0.00 71 1020.5
20260506160059 17 211 0.0 4.8 0.00 0.00 0.00 72 1020.5
20260506154558 17 0 0.0 1.6 0.00 0.00 0.00 74 1020.6
20260506153058 16 0 0.0 3.2 0.00 0.00 0.00 76 1020.6
20260506151555 15 0 0.0 3.2 0.00 0.00 0.00 79 1020.5
20260506150055 13 0 0.0 3.2 0.00 0.00 0.00 83 1020.6
20260506144552 13 0 0.0 3.2 0.00 0.00 0.00 85 1020.5
20260506143053 12 0 0.0 3.2 0.00 0.00 0.00 87 1020.4
20260506141554 12 0 0.0 1.6 0.00 0.00 0.00 87 1020.1
20260506140053 12 0 0.0 0.0 0.00 0.00 0.00 87 1020.1
20260506134557 12 0 0.0 0.0 0.00 0.00 0.00 87 1020.1
20260506133056 12 0 0.0 0.0 0.00 0.00 0.00 87 1020.0
20260506131551 12 0 0.0 0.0 0.00 0.00 0.00 87 1019.8
20260506130056 12 0 0.0 0.0 0.00 0.00 0.00 87 1019.7
20260506124555 12 0 0.0 0.0 0.00 0.00 0.00 86 1019.8
20260506123107 12 0 0.0 1.6 0.00 0.00 0.00 86 1019.6
20260506121608 12 0 0.0 0.0 0.00 0.00 0.00 86 1019.7
20260506120059 12 217 0.0 3.2 0.00 0.00 0.00 86 1019.6
20260506114552 12 0 0.0 1.6 0.00 0.00 0.00 85 1019.6
20260506113056 12 0 0.0 0.0 0.00 0.00 0.00 85 1019.3
20260506111552 12 0 0.0 0.0 0.00 0.00 0.00 84 1019.2
20260506104557 12 0 0.0 3.2 0.00 0.00 0.00 84 1019.1
20260506103056 12 0 0.0 4.8 0.00 0.00 0.00 83 1019.1
20260506101608 12 0 0.0 1.6 0.00 0.00 0.00 83 1018.9
20260506100053 12 0 0.0 3.2 0.00 0.00 0.00 83 1019.0
20260506094559 12 0 0.0 6.4 0.00 0.03 0.00 83 1019.0
20260506093058 12 0 1.6 4.8 0.00 0.03 0.00 83 1018.9
20260506091556 12 230 1.6 4.8 0.00 0.03 0.00 83 1019.1
20260506090107 12 0 0.0 4.8 0.00 0.03 0.00 83 1019.0
20260506084616 13 255 0.0 3.2 0.00 0.05 0.00 83 1019.1
20260506083053 13 0 1.6 6.4 0.00 0.05 0.00 82 1019.0
20260506081603 13 0 0.0 1.6 0.00 0.05 0.00 83 1019.0
20260506073054 13 229 0.0 4.8 0.00 0.20 0.00 81 1018.6
20260506071556 13 0 0.0 4.8 0.00 0.20 0.00 81 1018.5
20260506061552 13 0 0.0 3.2 0.00 0.38 0.20 80 1018.1
20260506050113 13 0 0.0 3.2 0.00 0.58 0.20 79 1017.5
20260506044551 13 0 0.0 4.8 0.00 0.84 0.20 78 1017.2
20260506043050 13 227 0.0 3.2 0.00 0.84 0.20 78 1017.0
20260506041601 13 0 0.0 3.2 0.00 0.84 0.20 78 1016.9
20260506040057 13 0 0.0 3.2 0.00 0.84 0.20 78 1016.7
20260506034601 13 0 1.6 4.8 0.00 1.02 0.20 77 1016.7
20260506033053 13 0 1.6 6.4 0.00 1.02 0.20 78 1016.4
20260506031555 13 254 1.6 8.0 0.00 1.02 0.20 77 1016.3
20260506030059 14 0 1.6 6.4 0.00 1.02 0.20 77 1016.0
20260506024608 14 339 0.0 6.4 0.00 1.22 0.20 77 1015.9
20260506023111 14 329 3.2 14.5 0.00 1.22 0.20 76 1015.9
20260506021554 15 0 3.2 14.5 0.00 1.22 0.20 76 1015.7
20260506020056 15 238 3.2 12.9 0.00 1.22 0.20 75 1015.5
20260506014555 15 266 3.2 12.9 0.00 1.27 0.20 75 1015.4
20260506013056 15 252 3.2 12.9 0.00 1.27 0.20 74 1015.3
20260506011552 16 284 3.2 12.9 0.00 1.27 0.20 74 1015.3
20260506010055 16 190 1.6 12.9 0.00 1.27 0.20 74 1015.1
20260506004600 16 192 3.2 16.1 0.00 1.37 0.20 74 1015.2
20260506003053 16 218 1.6 12.9 0.00 1.37 0.20 75 1015.0
20260506001556 16 221 3.2 11.3 0.00 1.37 0.20 74 1014.9
20260506000105 16 200 3.2 16.1 0.00 1.37 0.20 74 1014.9
20260505234558 16 360 0.0 12.9 0.00 1.45 0.20 73 1014.8
20260505233056 17 360 1.6 14.5 0.00 1.45 0.20 72 1014.8
20260505231558 18 360 1.6 14.5 0.00 1.45 0.20 71 1014.7
20260505230122 18 360 1.6 12.9 0.00 1.45 0.20 72 1014.7
20260505224555 17 0 1.6 12.9 0.00 1.47 0.20 72 1014.7
20260505223054 17 360 1.6 12.9 0.00 1.47 0.20 72 1014.8
20260505221603 17 360 0.0 8.0 0.00 1.47 0.20 73 1014.9
20260505214609 17 360 3.2 12.9 0.00 1.47 0.20 73 1015.1
20260505213100 17 360 3.2 9.7 0.00 1.47 0.20 73 1015.1
20260505211559 18 360 1.6 16.1 0.00 1.47 0.20 72 1015.2
20260505210056 18 360 1.6 14.5 0.00 1.47 0.20 71 1015.1
20260505204603 17 360 4.8 16.1 0.00 1.47 0.20 73 1015.3
20260505203102 17 360 1.6 8.0 0.00 1.47 0.20 75 1015.3
20260505201555 17 360 3.2 16.1 0.00 1.47 0.20 74 1015.3
20260505200107 16 360 4.8 9.7 0.00 1.47 0.20 76 1015.3
20260505194554 16 360 1.6 12.9 0.00 1.47 0.20 76 1015.5
20260505193103 17 309 0.0 6.4 0.00 1.47 0.20 74 1015.4
20260505191607 16 0 0.0 8.0 0.00 1.47 0.20 75 1015.4
20260505190054 16 0 1.6 6.4 0.00 1.47 0.20 74 1015.4
20260505184559 16 297 3.2 11.3 0.00 1.47 0.20 75 1015.3
20260505183100 16 360 0.0 12.9 0.00 1.47 0.20 78 1015.5
20260505181559 16 317 0.0 6.4 0.00 1.47 0.20 78 1015.6
20260505174607 14 292 1.6 8.0 0.00 1.47 0.20 82 1015.5
20260505173056 13 271 1.6 4.8 0.00 1.47 0.20 86 1015.4
20260505171556 13 0 1.6 6.4 0.00 1.47 0.20 90 1015.3
20260505170055 12 360 1.6 6.4 0.00 1.47 0.20 93 1015.4